Location: Observatoire
(46.1952°N, 5.3391°E)
Time: 01:46:30
(UTC+01:00)

Explorer 7 - Pass Details

Date: 25 February 2026
Orbit: 430 x 541 km, 50.2° (Epoch: 10 March)

Event Time Altitude Azimuth Distance (km) Brightness Sun altitude
Rises 14:27:53 0° 263° (W) 2,403 10.5 30.8°
Reaches altitude 10° 14:30:00 10° 268° (W) 1,545 9.6 30.6°
Maximum altitude 14:33:25 52° 347° (NNW) 557 6.9 30.3°
Drops below altitude 10° 14:36:55 10° 65° (ENE) 1,594 8.8 30.0°
Sets 14:39:09 0° 70° (ENE) 2,489 9.8 29.8°
